Weather History for KFOZ - July, 2013

Change the Weather History Date:

Tuesday, July 30, 2013

  Actual Average (KGPZ) Record (KGPZ)
Temperature  
Mean Temperature 63 °F -  
Max Temperature 75 °F 79 °F 99 °F (1917)
Min Temperature 51 °F 54 °F 39 °F (1936)
Degree Days  
Heating Degree Days 2    
Growing Degree Days 13 (Base 50)    
Moisture  
Dew Point 58 °F    
Average Humidity 83    
Maximum Humidity 94    
Minimum Humidity 61    
Precipitation  
Precipitation 0.00 in - - ()
Sea Level Pressure  
Sea Level Pressure 30.05 in    
Wind  
Wind Speed 2 mph (SW)    
Max Wind Speed 12 mph    
Max Gust Speed 16 mph    
Visibility 10 miles    
Events Rain    
Averages and records for this station are not official NWS values.
T = Trace of Precipitation, MM = Missing Value Source: NWS Daily Summary

Daily Weather History Graph

Daily Weather History Graph

Search for Another Location

Airport or City:

Trip Planner

Search our weather history database for the weather conditions in past years. The results will help you decide how hot, cold, wet, or windy it might be!

Date:

Astronomy

Jul. 30, 2013 Rise Set
Actual Time 5:49 AM CDT 8:51 PM CDT
Civil Twilight 5:12 AM CDT 9:28 PM CDT
Nautical Twilight 4:25 AM CDT 10:15 PM CDT
Astronomical Twilight 3:27 AM CDT 11:12 PM CDT
Moon 12:11 AM CDT (7/30) 3:11 PM CDT (7/30)
Length of Visible Light 16h 15m
Length of Day
15h 02m
Last Quarter, 41% of the Moon is Illuminated
Jul 30
Last Quarter
Aug 6
New
Aug 14
First Quarter
Aug 20
Full
Aug 28
Last Quarter

Hourly Weather History & Observations

Time (CDT) Temp. Dew Point Humidity Pressure Visibility Wind Dir Wind Speed Gust Speed Precip Events Conditions
12:13 AM 51.8 °F 50.0 °F 94% 30.07 in 10.0 mi Calm Calm - N/A   Clear
12:33 AM 51.8 °F 50.0 °F 94% 30.08 in 10.0 mi Calm Calm - N/A   Clear
12:53 AM 51.8 °F 48.2 °F 88% 30.08 in 10.0 mi Calm Calm - N/A   Clear
1:13 AM 51.8 °F 50.0 °F 94% 30.08 in 10.0 mi Calm Calm - N/A   Scattered Clouds
1:33 AM 51.8 °F 50.0 °F 94% 30.07 in 10.0 mi Calm Calm - N/A   Scattered Clouds
1:53 AM 53.6 °F 51.8 °F 94% 30.07 in 10.0 mi Calm Calm - N/A   Scattered Clouds
2:13 AM 53.6 °F 51.8 °F 94% 30.07 in 10.0 mi Calm Calm - N/A   Scattered Clouds
2:33 AM 53.6 °F 51.8 °F 94% 30.07 in 10.0 mi Calm Calm - N/A   Mostly Cloudy
2:53 AM 55.4 °F 53.6 °F 94% 30.07 in 10.0 mi Calm Calm - N/A   Overcast
3:13 AM 55.4 °F 53.6 °F 94% 30.07 in 10.0 mi Calm Calm - N/A   Overcast
3:33 AM 55.4 °F 53.6 °F 94% 30.06 in 10.0 mi Calm Calm - N/A Rain Light Rain
3:53 AM 55.4 °F 53.6 °F 94% 30.06 in 7.0 mi Calm Calm - N/A Rain Rain
4:13 AM 55.4 °F 53.6 °F 94% 30.07 in 7.0 mi Calm Calm - N/A Rain Light Rain
4:33 AM 55.4 °F 53.6 °F 94% 30.07 in 10.0 mi Calm Calm - N/A Rain Light Rain
4:53 AM 57.2 °F 55.4 °F 94% 30.07 in 10.0 mi Calm Calm - N/A   Light Drizzle
5:13 AM 57.2 °F 55.4 °F 94% 30.06 in 10.0 mi Calm Calm - N/A   Overcast
5:33 AM 59.0 °F 57.2 °F 94% 30.06 in 10.0 mi Calm Calm - N/A   Overcast
5:53 AM 59.0 °F 57.2 °F 94% 30.06 in 10.0 mi Calm Calm - N/A   Overcast
6:13 AM 59.0 °F 57.2 °F 94% 30.07 in 10.0 mi South 4.6 mph - N/A   Overcast
6:33 AM 59.0 °F 57.2 °F 94% 30.07 in 10.0 mi South 3.5 mph - N/A   Mostly Cloudy
6:53 AM 60.8 °F 57.2 °F 88% 30.07 in 10.0 mi SSE 3.5 mph - N/A   Mostly Cloudy
7:13 AM 60.8 °F 57.2 °F 88% 30.08 in 10.0 mi South 3.5 mph - N/A   Overcast
7:33 AM 60.8 °F 57.2 °F 88% 30.08 in 10.0 mi South 4.6 mph - N/A   Mostly Cloudy
7:53 AM 60.8 °F 57.2 °F 88% 30.07 in 10.0 mi South 4.6 mph - N/A Rain Light Rain
8:13 AM 60.8 °F 57.2 °F 88% 30.07 in 10.0 mi South 3.5 mph - N/A   Mostly Cloudy
8:33 AM 60.8 °F 57.2 °F 88% 30.07 in 10.0 mi SSW 4.6 mph - N/A   Mostly Cloudy
8:53 AM 60.8 °F 59.0 °F 94% 30.07 in 10.0 mi South 5.8 mph - N/A Rain Light Rain
9:13 AM 60.8 °F 59.0 °F 94% 30.08 in 10.0 mi SSW 5.8 mph - N/A   Mostly Cloudy
9:33 AM 62.6 °F 60.8 °F 94% 30.07 in 10.0 mi South 6.9 mph - N/A   Overcast
9:53 AM 64.4 °F 60.8 °F 88% 30.07 in 10.0 mi SSW 4.6 mph - N/A   Overcast
10:13 AM 64.4 °F 60.8 °F 88% 30.06 in 10.0 mi South 6.9 mph - N/A   Overcast
10:33 AM 64.4 °F 60.8 °F 88% 30.06 in 10.0 mi South 5.8 mph - N/A   Overcast
10:53 AM 64.4 °F 60.8 °F 88% 30.07 in 10.0 mi SSW 5.8 mph - N/A   Overcast
11:13 AM 64.4 °F 60.8 °F 88% 30.06 in 10.0 mi South 4.6 mph - N/A   Mostly Cloudy
11:33 AM 66.2 °F 60.8 °F 83% 30.06 in 10.0 mi South 8.1 mph - N/A   Scattered Clouds
11:53 AM 66.2 °F 60.8 °F 83% 30.06 in 10.0 mi SSW 9.2 mph - N/A   Scattered Clouds
12:13 PM 66.2 °F 60.8 °F 83% 30.07 in 10.0 mi SW 6.9 mph - N/A   Mostly Cloudy
12:33 PM 66.2 °F 60.8 °F 83% 30.07 in 10.0 mi SSW 6.9 mph - N/A   Mostly Cloudy
12:53 PM 71.6 °F 62.6 °F 73% 30.06 in 10.0 mi SSW 8.1 mph - N/A   Scattered Clouds
1:13 PM 71.6 °F 60.8 °F 69% 30.05 in 10.0 mi SW 10.4 mph - N/A   Scattered Clouds
1:33 PM 71.6 °F 60.8 °F 69% 30.05 in 10.0 mi SW 8.1 mph 11.5 mph N/A   Scattered Clouds
1:53 PM 73.4 °F 62.6 °F 69% 30.05 in 10.0 mi SSW 10.4 mph - N/A   Scattered Clouds
2:13 PM 73.4 °F 60.8 °F 65% 30.05 in 10.0 mi SW 8.1 mph - N/A   Scattered Clouds
2:33 PM 73.4 °F 60.8 °F 65% 30.05 in 10.0 mi SW 10.4 mph - N/A   Scattered Clouds
2:53 PM 73.4 °F 62.6 °F 69% 30.04 in 10.0 mi SW 8.1 mph - N/A   Scattered Clouds
3:13 PM 75.2 °F 62.6 °F 65% 30.04 in 10.0 mi SSW 11.5 mph 16.1 mph N/A   Scattered Clouds
3:33 PM 75.2 °F 60.8 °F 61% 30.03 in 10.0 mi WSW 9.2 mph 16.1 mph N/A   Scattered Clouds
3:53 PM 75.2 °F 60.8 °F 61% 30.03 in 10.0 mi WSW 8.1 mph - N/A   Mostly Cloudy
4:13 PM 73.4 °F 60.8 °F 65% 30.03 in 10.0 mi West 3.5 mph - N/A   Overcast
4:33 PM 73.4 °F 60.8 °F 65% 30.03 in 10.0 mi West 4.6 mph - N/A   Scattered Clouds
4:53 PM 73.4 °F 59.0 °F 61% 30.03 in 10.0 mi West 4.6 mph - N/A   Scattered Clouds
5:13 PM 73.4 °F 60.8 °F 65% 30.03 in 10.0 mi WNW 4.6 mph - N/A   Scattered Clouds
5:33 PM 73.4 °F 60.8 °F 65% 30.03 in 10.0 mi NW 4.6 mph - N/A   Clear
5:53 PM 71.6 °F 59.0 °F 64% 30.03 in 10.0 mi NW 3.5 mph - N/A   Clear
6:13 PM 71.6 °F 59.0 °F 64% 30.04 in 10.0 mi West 5.8 mph - N/A   Clear
6:33 PM 69.8 °F 57.2 °F 64% 30.04 in 10.0 mi Calm Calm - N/A   Clear
6:53 PM 69.8 °F 59.0 °F 68% 30.03 in 10.0 mi Calm Calm - N/A   Clear
7:13 PM 69.8 °F 59.0 °F 68% 30.03 in 10.0 mi Calm Calm - N/A   Clear
7:33 PM 69.8 °F 60.8 °F 73% 30.03 in 10.0 mi Calm Calm - N/A   Clear
7:53 PM 68.0 °F 60.8 °F 78% 30.04 in 10.0 mi Calm Calm - N/A   Clear
8:13 PM 68.0 °F 59.0 °F 73% 30.04 in 10.0 mi Calm Calm - N/A   Clear
8:33 PM 66.2 °F 59.0 °F 78% 30.04 in 10.0 mi Calm Calm - N/A   Scattered Clouds
8:53 PM 64.4 °F 59.0 °F 83% 30.04 in 10.0 mi Calm Calm - N/A   Clear
9:13 PM 64.4 °F 59.0 °F 83% 30.04 in 10.0 mi Calm Calm - N/A   Clear
9:33 PM 62.6 °F 59.0 °F 88% 30.03 in 10.0 mi Calm Calm - N/A   Scattered Clouds
9:53 PM 62.6 °F 59.0 °F 88% 30.04 in 10.0 mi Calm Calm - N/A   Scattered Clouds
10:13 PM 60.8 °F 57.2 °F 88% 30.03 in 10.0 mi Calm Calm - N/A   Scattered Clouds
10:33 PM 60.8 °F 57.2 °F 88% 30.03 in 10.0 mi Calm Calm - N/A   Clear
10:53 PM 60.8 °F 57.2 °F 88% 30.04 in 10.0 mi Calm Calm - N/A   Clear
11:13 PM 59.0 °F 57.2 °F 94% 30.04 in 10.0 mi Calm Calm - N/A   Clear
11:33 PM 60.8 °F 57.2 °F 88% 30.04 in 10.0 mi Calm Calm - N/A   Clear
11:53 PM 59.0 °F 57.2 °F 94% 30.04 in 10.0 mi Calm Calm - N/A   Mostly Cloudy